Location: Bannatyne
(13.0833°N, 59.5333°W)
Time: 23:34:36
(UTC+00:00)

IUS-13 SRM-1 - Pass Details

Date: 18 October 2019
Orbit: 233 x 23030 km, 26.8° (Epoch: 14 November)

Event Time Altitude Azimuth Distance (km) Brightness Sun altitude
Rises 21:30:17 0° 305° (NW) 1,902 5.8 0.9°
Reaches altitude 10° 21:31:32 10° 313° (NW) 1,293 4.8 0.6°
Maximum altitude 21:33:52 47° 31° (NNE) 733 2.7 0.1°
Drops below altitude 10° 21:41:14 10° 105° (ESE) 4,018 6.1 -1.7°
Sets 21:48:59 0° 110° (ESE) 7,430 7.5 -3.6°
